AAL2147 KMIA-KMCO

Flight info

Callsign AAL2147
Flight time 0h 34m
Altitude 20000
Route FLMGO2 WAPOM MUNGI1
Aircraft B738/M-SDE2E3FGHIRWXY/LB1

Departure

Time 2026-04-21 02:37
Airport Miami International Airport (KMIA)

Arrival

Time 2026-04-21 03:11
Airport Orlando International Airport (KMCO)
Time Latitude Longitude Altitude Speed Heading
2026-04-21 02:08 25.79916 -80.27226 13 ft 0 kts 180°
2026-04-21 02:25 25.79924 -80.27225 13 ft 2 kts 191°
2026-04-21 02:25 25.79939 -80.27223 13 ft 2 kts 177°
2026-04-21 02:25 25.79954 -80.27223 13 ft 2 kts 182°
2026-04-21 02:25 25.79969 -80.27223 13 ft 2 kts 184°
2026-04-21 02:26 25.79983 -80.27218 13 ft 2 kts 213°
2026-04-21 02:26 25.79994 -80.27207 13 ft 2 kts 236°
2026-04-21 02:26 25.80000 -80.27192 13 ft 2 kts 259°
2026-04-21 02:26 25.80001 -80.27183 13 ft 1 kts 271°
2026-04-21 02:27 25.80001 -80.27180 13 ft 0 kts 268°
2026-04-21 02:28 25.80001 -80.27187 13 ft 4 kts 268°
2026-04-21 02:29 25.79998 -80.27241 13 ft 7 kts 266°
2026-04-21 02:29 25.79995 -80.27286 13 ft 3 kts 266°
2026-04-21 02:29 25.79993 -80.27332 13 ft 10 kts 268°
2026-04-21 02:29 25.79989 -80.27454 13 ft 20 kts 268°
2026-04-21 02:30 25.79982 -80.27614 13 ft 20 kts 267°
2026-04-21 02:30 25.79976 -80.27764 13 ft 19 kts 268°
2026-04-21 02:30 25.79970 -80.27922 13 ft 22 kts 268°
2026-04-21 02:30 25.79962 -80.28091 13 ft 21 kts 267°
2026-04-21 02:31 25.79955 -80.28252 13 ft 20 kts 268°
2026-04-21 02:31 25.79950 -80.28401 13 ft 18 kts 268°
2026-04-21 02:31 25.79942 -80.28540 13 ft 17 kts 266°
2026-04-21 02:31 25.79938 -80.28668 13 ft 16 kts 269°
2026-04-21 02:32 25.79929 -80.28785 13 ft 14 kts 261°
2026-04-21 02:32 25.79918 -80.28882 13 ft 10 kts 232°
2026-04-21 02:32 25.79920 -80.28920 13 ft 6 kts 342°
2026-04-21 02:32 25.79983 -80.28929 13 ft 11 kts 345°
2026-04-21 02:33 25.80009 -80.29018 13 ft 15 kts 267°
2026-04-21 02:33 25.80001 -80.29147 13 ft 16 kts 267°
2026-04-21 02:33 25.79997 -80.29273 13 ft 15 kts 268°
2026-04-21 02:33 25.79992 -80.29398 13 ft 17 kts 267°
2026-04-21 02:34 25.79985 -80.29549 13 ft 21 kts 267°
2026-04-21 02:34 25.79979 -80.29718 13 ft 21 kts 268°
2026-04-21 02:34 25.79971 -80.29896 13 ft 24 kts 268°
2026-04-21 02:34 25.79969 -80.30003 13 ft 9 kts 273°
2026-04-21 02:35 25.79969 -80.30045 13 ft 0 kts 271°
2026-04-21 02:35 25.79970 -80.30066 13 ft 6 kts 278°
2026-04-21 02:35 25.80017 -80.30119 13 ft 13 kts 346°
2026-04-21 02:36 25.80074 -80.30043 13 ft 15 kts 85°
2026-04-21 02:36 25.80088 -80.29787 13 ft 65 kts 87°
2026-04-21 02:36 25.80117 -80.29027 13 ft 129 kts 86°
2026-04-21 02:36 25.80158 -80.27834 123 ft 169 kts 86°
2026-04-21 02:37 25.80134 -80.26587 1009 ft 156 kts 89°
2026-04-21 02:37 25.80071 -80.25435 1703 ft 154 kts 88°
2026-04-21 02:37 25.80151 -80.24195 2054 ft 167 kts 73°
2026-04-21 02:37 25.80383 -80.22902 2480 ft 180 kts 79°
2026-04-21 02:38 25.80490 -80.21429 2847 ft 201 kts 84°
2026-04-21 02:38 25.80554 -80.19805 3342 ft 217 kts 82°
2026-04-21 02:38 25.80912 -80.18156 3805 ft 231 kts 61°
2026-04-21 02:38 25.82011 -80.16807 4286 ft 246 kts 34°
2026-04-21 02:39 25.83612 -80.16045 4962 ft 256 kts 15°
2026-04-21 02:39 25.85403 -80.15794 5755 ft 260 kts
2026-04-21 02:39 25.87241 -80.15752 6475 ft 266 kts
2026-04-21 02:39 25.89079 -80.15781 7291 ft 268 kts 356°
2026-04-21 02:40 25.90928 -80.16166 8032 ft 272 kts 346°
2026-04-21 02:40 25.92748 -80.16796 8800 ft 274 kts 342°
2026-04-21 02:40 25.94551 -80.17476 9545 ft 277 kts 342°
2026-04-21 02:40 25.96377 -80.18149 10250 ft 280 kts 342°
2026-04-21 02:41 25.98281 -80.18879 10636 ft 297 kts 338°
2026-04-21 02:41 26.00127 -80.20049 11031 ft 312 kts 323°
2026-04-21 02:41 26.01820 -80.21641 11391 ft 328 kts 318°
2026-04-21 02:41 26.03527 -80.23434 11814 ft 341 kts 316°
2026-04-21 02:42 26.05227 -80.25231 12588 ft 342 kts 317°
2026-04-21 02:42 26.06992 -80.27055 13312 ft 345 kts 317°
2026-04-21 02:42 26.08774 -80.28855 14061 ft 347 kts 317°
2026-04-21 02:42 26.10577 -80.30656 14836 ft 349 kts 317°
2026-04-21 02:43 26.12379 -80.32446 15621 ft 350 kts 317°
2026-04-21 02:43 26.14203 -80.34255 16346 ft 352 kts 316°
2026-04-21 02:43 26.16026 -80.36065 17125 ft 352 kts 316°
2026-04-21 02:43 26.17830 -80.37858 17790 ft 354 kts 316°
2026-04-21 02:44 26.19671 -80.39687 18431 ft 357 kts 316°
2026-04-21 02:44 26.21571 -80.41498 19029 ft 362 kts 318°
2026-04-21 02:44 26.23632 -80.43145 19726 ft 363 kts 324°
2026-04-21 02:44 26.25831 -80.44544 20075 ft 372 kts 328°
2026-04-21 02:45 26.28212 -80.45866 20153 ft 388 kts 330°
2026-04-21 02:45 26.30703 -80.47174 20153 ft 403 kts 331°
2026-04-21 02:45 26.33315 -80.48525 20160 ft 413 kts 331°
2026-04-21 02:45 26.35904 -80.49863 20158 ft 414 kts 331°
2026-04-21 02:46 26.38537 -80.51230 20153 ft 413 kts 331°
2026-04-21 02:46 26.41122 -80.52581 20155 ft 414 kts 331°
2026-04-21 02:46 26.43758 -80.53967 20161 ft 413 kts 331°
2026-04-21 02:46 26.46370 -80.55339 20161 ft 414 kts 332°
2026-04-21 02:47 26.49007 -80.56584 20161 ft 416 kts 335°
2026-04-21 02:47 26.51767 -80.57642 20165 ft 417 kts 339°
2026-04-21 02:47 26.54342 -80.58501 20162 ft 418 kts 340°
2026-04-21 02:47 26.56829 -80.59280 20157 ft 418 kts 341°
2026-04-21 02:48 26.59650 -80.60143 20164 ft 418 kts 341°
2026-04-21 02:48 26.60567 -80.60422 20165 ft 418 kts 341°
2026-04-21 02:48 26.62133 -80.60901 20165 ft 419 kts 341°
2026-04-21 02:48 26.64944 -80.61764 20166 ft 417 kts 341°
2026-04-21 02:49 26.67761 -80.62637 20165 ft 417 kts 340°
2026-04-21 02:49 26.70564 -80.63512 20164 ft 416 kts 340°
2026-04-21 02:49 26.73333 -80.64383 20168 ft 417 kts 340°
2026-04-21 02:49 26.76139 -80.65269 20169 ft 416 kts 340°
2026-04-21 02:50 26.78951 -80.66161 20170 ft 416 kts 340°
2026-04-21 02:50 26.81732 -80.67046 20172 ft 415 kts 340°
2026-04-21 02:50 26.84520 -80.67934 20172 ft 415 kts 340°
2026-04-21 02:50 26.87283 -80.68816 20166 ft 416 kts 340°
2026-04-21 02:51 26.90103 -80.69716 20172 ft 416 kts 340°
2026-04-21 02:51 26.92867 -80.70622 20172 ft 415 kts 339°
2026-04-21 02:51 26.95621 -80.71612 20082 ft 407 kts 338°
2026-04-21 02:51 26.98284 -80.72619 19843 ft 394 kts 337°
2026-04-21 02:52 27.00811 -80.73595 19603 ft 381 kts 337°
2026-04-21 02:52 27.03309 -80.74564 19363 ft 370 kts 337°
2026-04-21 02:52 27.05689 -80.75487 19194 ft 357 kts 337°
2026-04-21 02:52 27.08030 -80.76392 19185 ft 360 kts 337°
2026-04-21 02:53 27.10481 -80.77343 19182 ft 377 kts 338°
2026-04-21 02:53 27.13028 -80.78326 19182 ft 391 kts 338°
2026-04-21 02:53 27.15614 -80.79316 19183 ft 395 kts 338°
2026-04-21 02:53 27.18220 -80.80308 19191 ft 393 kts 338°
2026-04-21 02:54 27.20809 -80.81290 19197 ft 394 kts 338°
2026-04-21 02:54 27.23393 -80.82269 19199 ft 392 kts 338°
2026-04-21 02:54 27.26004 -80.83260 19200 ft 393 kts 338°
2026-04-21 02:54 27.28591 -80.84242 19201 ft 393 kts 338°
2026-04-21 02:55 27.31190 -80.85228 19202 ft 393 kts 338°
2026-04-21 02:55 27.33802 -80.86182 19205 ft 394 kts 339°
2026-04-21 02:55 27.36445 -80.87025 19203 ft 394 kts 341°
2026-04-21 02:55 27.39120 -80.87807 19205 ft 395 kts 342°
2026-04-21 02:56 27.41760 -80.88557 19201 ft 395 kts 342°
2026-04-21 02:56 27.47087 -80.90080 19209 ft 393 kts 341°
2026-04-21 02:56 27.49758 -80.90854 19027 ft 389 kts 342°
2026-04-21 02:57 27.52337 -80.91605 18524 ft 382 kts 342°
2026-04-21 02:57 27.54896 -80.92358 17967 ft 376 kts 342°
2026-04-21 02:57 27.57427 -80.93107 17414 ft 370 kts 342°
2026-04-21 02:57 27.59891 -80.93841 16868 ft 365 kts 342°
2026-04-21 02:58 27.62348 -80.94572 16314 ft 361 kts 342°
2026-04-21 02:58 27.64764 -80.95294 15751 ft 359 kts 342°
2026-04-21 02:58 27.67165 -80.96014 15200 ft 358 kts 342°
2026-04-21 02:58 27.69575 -80.96738 14636 ft 356 kts 343°
2026-04-21 02:59 27.71977 -80.97458 14089 ft 355 kts 342°
2026-04-21 02:59 27.74354 -80.98168 13531 ft 352 kts 343°
2026-04-21 02:59 27.76699 -80.98868 12983 ft 349 kts 343°
2026-04-21 02:59 27.79040 -80.99567 12427 ft 348 kts 343°
2026-04-21 03:00 27.81377 -81.00266 11867 ft 344 kts 344°
2026-04-21 03:00 27.83657 -81.00948 11317 ft 340 kts 345°
2026-04-21 03:00 27.85944 -81.01635 10713 ft 337 kts 345°
2026-04-21 03:00 27.88192 -81.02310 10113 ft 333 kts 345°
2026-04-21 03:01 27.90417 -81.02978 9511 ft 330 kts 345°
2026-04-21 03:01 27.92636 -81.03646 8895 ft 327 kts 345°
2026-04-21 03:01 27.94796 -81.04422 8362 ft 322 kts 342°
2026-04-21 03:01 27.96910 -81.05283 7870 ft 316 kts 340°
2026-04-21 03:02 27.98942 -81.06158 7385 ft 311 kts 340°
2026-04-21 03:02 28.00935 -81.07025 6900 ft 306 kts 340°
2026-04-21 03:02 28.02903 -81.07876 6412 ft 302 kts 341°
2026-04-21 03:02 28.04874 -81.08717 5998 ft 295 kts 341°
2026-04-21 03:03 28.06752 -81.09514 5697 ft 286 kts 342°
2026-04-21 03:03 28.08586 -81.10291 5450 ft 275 kts 342°
2026-04-21 03:03 28.10372 -81.11039 5201 ft 266 kts 343°
2026-04-21 03:03 28.12076 -81.11749 4954 ft 258 kts 343°
2026-04-21 03:04 28.13765 -81.12452 4703 ft 250 kts 343°
2026-04-21 03:04 28.15374 -81.13126 4495 ft 242 kts 343°
2026-04-21 03:04 28.16786 -81.14128 4296 ft 243 kts 315°
2026-04-21 03:04 28.17503 -81.15847 4180 ft 244 kts 282°
2026-04-21 03:05 28.17586 -81.17738 4172 ft 245 kts 274°
2026-04-21 03:05 28.17774 -81.19638 4151 ft 241 kts 292°
2026-04-21 03:05 28.18431 -81.21358 4160 ft 236 kts 302°
2026-04-21 03:05 28.19218 -81.23010 4159 ft 236 kts 303°
2026-04-21 03:06 28.19976 -81.24665 4161 ft 236 kts 301°
2026-04-21 03:06 28.20727 -81.26295 4160 ft 234 kts 306°
2026-04-21 03:06 28.21820 -81.27653 3976 ft 229 kts 334°
2026-04-21 03:06 28.23267 -81.28181 3670 ft 219 kts
2026-04-21 03:07 28.24789 -81.28181 3375 ft 217 kts
2026-04-21 03:07 28.26311 -81.28139 3081 ft 218 kts
2026-04-21 03:07 28.27837 -81.28124 2787 ft 218 kts
2026-04-21 03:07 28.29351 -81.28127 2501 ft 217 kts
2026-04-21 03:08 28.30836 -81.28135 2219 ft 209 kts
2026-04-21 03:08 28.32243 -81.28151 1934 ft 192 kts
2026-04-21 03:08 28.33516 -81.28168 1690 ft 174 kts
2026-04-21 03:08 28.34703 -81.28176 1472 ft 167 kts
2026-04-21 03:09 28.35812 -81.28185 1268 ft 151 kts
2026-04-21 03:09 28.36834 -81.28190 1080 ft 144 kts
2026-04-21 03:09 28.37847 -81.28192 873 ft 144 kts
2026-04-21 03:09 28.38860 -81.28200 685 ft 145 kts
2026-04-21 03:10 28.39881 -81.28213 489 ft 147 kts
2026-04-21 03:10 28.40912 -81.28223 306 ft 147 kts
2026-04-21 03:10 28.41932 -81.28238 151 ft 146 kts
2026-04-21 03:10 28.42892 -81.28243 104 ft 112 kts
2026-04-21 03:11 28.43440 -81.28247 104 ft 49 kts 360°
2026-04-21 03:11 28.43727 -81.28255 104 ft 33 kts 353°
2026-04-21 03:11 28.43874 -81.28384 104 ft 25 kts 276°
2026-04-21 03:11 28.43874 -81.28585 104 ft 26 kts 270°
2026-04-21 03:12 28.43874 -81.28809 104 ft 30 kts 268°
2026-04-21 03:12 28.43870 -81.29069 104 ft 35 kts 269°
2026-04-21 03:12 28.43821 -81.29264 104 ft 24 kts 193°
2026-04-21 03:12 28.43643 -81.29262 104 ft 25 kts 179°
2026-04-21 03:13 28.43552 -81.29321 104 ft 16 kts 265°
2026-04-21 03:13 28.43552 -81.29467 104 ft 18 kts 270°
2026-04-21 03:13 28.43549 -81.29608 104 ft 17 kts 271°
2026-04-21 03:13 28.43551 -81.29744 104 ft 17 kts 266°
2026-04-21 03:14 28.43458 -81.29806 104 ft 19 kts 180°
2026-04-21 03:14 28.43298 -81.29803 104 ft 26 kts 179°
2026-04-21 03:14 28.43091 -81.29800 104 ft 33 kts 180°
2026-04-21 03:14 28.42860 -81.29798 104 ft 32 kts 179°
2026-04-21 03:15 28.42633 -81.29798 104 ft 31 kts 179°
2026-04-21 03:15 28.42418 -81.29795 104 ft 30 kts 180°
2026-04-21 03:15 28.42288 -81.29817 104 ft 13 kts 236°
2026-04-21 03:15 28.42281 -81.29951 104 ft 22 kts 271°
2026-04-21 03:16 28.42277 -81.30173 104 ft 32 kts 271°
2026-04-21 03:16 28.42271 -81.30433 104 ft 24 kts 266°
2026-04-21 03:16 28.42258 -81.30599 120 ft 19 kts 265°
2026-04-21 03:16 28.42250 -81.30762 115 ft 23 kts 264°
2026-04-21 03:17 28.42233 -81.30977 104 ft 27 kts 268°
2026-04-21 03:17 28.42258 -81.31187 104 ft 26 kts 282°
2026-04-21 03:17 28.42268 -81.31391 104 ft 26 kts 270°
2026-04-21 03:17 28.42266 -81.31591 104 ft 20 kts 270°
2026-04-21 03:18 28.42313 -81.31667 104 ft 13 kts 358°
2026-04-21 03:18 28.42405 -81.31658 104 ft 12 kts 14°
2026-04-21 03:18 28.42479 -81.31615 104 ft 11 kts 25°
2026-04-21 03:18 28.42552 -81.31612 104 ft 10 kts 347°
2026-04-21 03:19 28.42616 -81.31634 104 ft 9 kts 346°
2026-04-21 03:19 28.42697 -81.31650 104 ft 13 kts 352°
2026-04-21 03:19 28.42793 -81.31673 104 ft 6 kts 345°
2026-04-21 03:19 28.42815 -81.31675 104 ft 3 kts 38°
2026-04-21 03:20 28.42824 -81.31639 104 ft 4 kts 88°
2026-04-21 03:20 28.42825 -81.31614 104 ft 0 kts 89°